DW9923 Weather Reports


Display with metric or nautical units.
time (UTC)temp
F
wind
direction
speed
MPH
gust
MPH
rain 1hr
in
rain 24hr
in
rain mn
in
humidity
%
barometer
mb
20220528004712 70 307 1.0 5.0 0.00 0.00 0.00 61
20220528004213 71 59 1.0 5.0 0.00 0.00 0.00 61
20220528003707 71 298 0.0 5.0 0.00 0.00 0.00 61
20220528003214 71 297 1.0 5.0 0.00 0.00 0.00 60
20220528002723 71 304 1.0 6.0 0.00 0.00 0.00 60
20220528002204 71 298 2.0 6.0 0.00 0.00 0.00 60
20220528001649 71 293 1.0 6.0 0.00 0.00 0.00 59
20220528001156 71 286 1.0 6.0 0.00 0.00 0.00 60
20220528000701 71 11 0.0 4.0 0.00 0.00 0.00 60
20220528000153 71 306 1.0 8.0 0.00 0.00 0.00 61
20220527235658 70 311 2.0 8.0 0.00 0.00 0.00 62
20220527235144 71 316 2.0 8.0 0.00 0.00 0.00 60
20220527234648 71 298 2.0 8.0 0.00 0.00 0.00 60
20220527234157 71 265 2.0 7.0 0.00 0.00 0.00 59
20220527233701 71 282 2.0 13.0 0.00 0.00 0.00 61
20220527233151 70 282 1.0 13.0 0.00 0.00 0.00 62
20220527232700 70 297 1.0 13.0 0.00 0.00 0.00 61
20220527232209 70 309 2.0 13.0 0.00 0.00 0.00 60
20220527231651 71 78 1.0 7.0 0.00 0.00 0.00 59
20220527231135 71 130 2.0 6.0 0.00 0.00 0.00 59
20220527230638 72 281 2.0 6.0 0.00 0.00 0.00 57
20220527230138 73 309 1.0 6.0 0.00 0.00 0.00 56
20220527225630 73 275 0.0 6.0 0.00 0.00 0.00 56
20220527225132 73 115 1.0 6.0 0.00 0.00 0.00 56
20220527224638 73 331 1.0 6.0 0.00 0.00 0.00 55
20220527224129 73 302 1.0 5.0 0.00 0.00 0.00 55
20220527223617 73 54 1.0 5.0 0.00 0.00 0.00 55
20220527223108 73 292 1.0 5.0 0.00 0.00 0.00 55
20220527222603 74 292 1.0 5.0 0.00 0.00 0.00 55
20220527222113 74 274 1.0 6.0 0.00 0.00 0.00 54
20220527221558 74 266 1.0 6.0 0.00 0.00 0.00 54
20220527221051 74 298 2.0 6.0 0.00 0.00 0.00 54
20220527220549 75 289 1.0 6.0 0.00 0.00 0.00 53
20220527220058 75 315 0.0 6.0 0.00 0.00 0.00 52
20220527215600 75 242 1.0 6.0 0.00 0.00 0.00 52
20220527215107 75 334 1.0 6.0 0.00 0.00 0.00 51
20220527214557 75 315 1.0 5.0 0.00 0.00 0.00 52
20220527214053 75 109 1.0 4.0 0.00 0.00 0.00 54
20220527213559 75 283 0.0 4.0 0.00 0.00 0.00 53
20220527213056 74 294 0.0 4.0 0.00 0.00 0.00 54
20220527212547 75 147 0.0 3.0 0.00 0.00 0.00 54
20220527212054 74 270 1.0 6.0 0.00 0.00 0.00 55
20220527211555 74 11 2.0 6.0 0.00 0.00 0.00 53
20220527211057 74 305 1.0 7.0 0.00 0.00 0.00 54
20220527210554 75 295 1.0 7.0 0.00 0.00 0.00 54
20220527210036 75 294 1.0 9.0 0.00 0.00 0.00 52
20220527205532 75 98 1.0 9.0 0.00 0.00 0.00 53
20220527205029 75 46 2.0 9.0 0.00 0.00 0.00 55
20220527204511 75 284 3.0 9.0 0.00 0.00 0.00 54
20220527203957 76 299 2.0 7.0 0.00 0.00 0.00 53
20220527203445 77 289 1.0 6.0 0.00 0.00 0.00 52
20220527202928 77 92 1.0 6.0 0.00 0.00 0.00 51
20220527202415 77 40 1.0 6.0 0.00 0.00 0.00 52
20220527201905 77 329 0.0 6.0 0.00 0.00 0.00 50
20220527201346 77 307 0.0 6.0 0.00 0.00 0.00 52
20220527200854 77 88 0.0 6.0 0.00 0.00 0.00 53
20220527200343 76 39 0.0 6.0 0.00 0.00 0.00 53
20220527195850 75 63 1.0 5.0 0.00 0.00 0.00 55
20220527195354 75 355 1.0 5.0 0.00 0.00 0.00 56
20220527194833 75 302 1.0 5.0 0.00 0.00 0.00 55
20220527194319 75 67 1.0 5.0 0.00 0.00 0.00 56
20220527193815 74 346 1.0 4.0 0.00 0.00 0.00 57
20220527193320 73 119 0.0 4.0 0.00 0.00 0.00 58
20220527192812 73 19 0.0 4.0 0.00 0.00 0.00 57
20220527192317 73 292 0.0 4.0 0.00 0.00 0.00 58
20220527191818 73 311 0.0 4.0 0.00 0.00 0.00 58
20220527191318 73 284 0.0 4.0 0.00 0.00 0.00 58
20220527190819 73 284 1.0 4.0 0.00 0.00 0.00 58
20220527190328 73 255 0.0 3.0 0.00 0.00 0.00 59
20220527185817 72 304 0.0 2.0 0.00 0.00 0.00 59
20220527185315 72 303 0.0 2.0 0.00 0.00 0.00 59
20220527184819 72 303 0.0 2.0 0.00 0.00 0.00 60
20220527184302 71 65 0.0 3.0 0.00 0.00 0.00 61
20220527183800 71 120 0.0 3.0 0.00 0.00 0.00 62
20220527183256 70 75 0.0 4.0 0.00 0.00 0.00 62
20220527182758 70 277 0.0 4.0 0.00 0.00 0.00 63
20220527182300 70 309 0.0 4.0 0.00 0.00 0.00 64
20220527181801 69 34 0.0 4.0 0.00 0.00 0.00 64
20220527181309 69 167 0.0 4.0 0.00 0.00 0.00 66
20220527180818 68 13 0.0 2.0 0.00 0.00 0.00 68
20220527180314 67 322 0.0 0.0 0.00 0.00 0.00 68
20220527175806 67 322 0.0 1.0 0.00 0.00 0.00 68
20220527175313 66 322 0.0 3.0 0.00 0.00 0.00 70
20220527174821 66 318 0.0 3.0 0.00 0.00 0.00 70
20220527174330 65 199 0.0 3.0 0.00 0.00 0.00 72
20220527173821 64 327 0.0 0.0 0.00 0.00 0.00 73
20220527173303 64 327 0.0 2.0 0.00 0.00 0.00 72
20220527172809 64 327 0.0 0.0 0.00 0.00 0.00 73
20220527172253 64 327 0.0 2.0 0.00 0.00 0.00 73
20220527171733 64 327 0.0 1.0 0.00 0.00 0.00 74
20220527171237 63 327 0.0 0.0 0.00 0.00 0.00 74
20220527170746 63 327 0.0 0.0 0.00 0.00 0.00 75
20220527170231 63 327 0.0 0.0 0.00 0.00 0.00 75
20220527165719 63 327 0.0 0.0 0.00 0.00 0.00 76
20220527165215 62 164 0.0 0.0 0.00 0.00 0.00 78
20220527164704 62 164 0.0 0.0 0.00 0.00 0.00 79
20220527164145 61 164 0.0 0.0 0.00 0.00 0.00 79
20220527163645 61 164 0.0 0.0 0.00 0.00 0.00 80
20220527163151 61 164 0.0 0.0 0.00 0.00 0.00 80
20220527162631 61 164 0.0 0.0 0.00 0.00 0.00 80
20220527162122 61 164 0.0 0.0 0.00 0.00 0.00 81
20220527161631 60 164 0.0 0.0 0.00 0.00 0.00 81
20220527161132 60 164 0.0 0.0 0.00 0.00 0.00 82
20220527160619 60 164 0.0 0.0 0.00 0.00 0.00 82
20220527160113 60 164 0.0 0.0 0.00 0.00 0.00 82
20220527155615 60 164 0.0 0.0 0.00 0.00 0.00 82
20220527155119 60 164 0.0 0.0 0.00 0.00 0.00 83
20220527154624 60 164 0.0 0.0 0.00 0.00 0.00 83
20220527154130 60 164 0.0 0.0 0.00 0.00 0.00 83
20220527153624 60 164 0.0 0.0 0.00 0.00 0.00 83
20220527153120 60 164 0.0 0.0 0.00 0.00 0.00 83
20220527152621 60 164 0.0 0.0 0.00 0.00 0.00 84
20220527152125 59 164 0.0 0.0 0.00 0.00 0.00 84
20220527151624 59 164 0.0 0.0 0.00 0.00 0.00 85
20220527151132 59 164 0.0 0.0 0.00 0.00 0.00 85
20220527150636 59 164 0.0 0.0 0.00 0.00 0.00 86
20220527150132 59 164 0.0 0.0 0.00 0.00 0.00 86
20220527145619 59 164 0.0 0.0 0.00 0.00 0.00 86
20220527145119 59 164 0.0 0.0 0.00 0.00 0.00 86
20220527144619 58 164 0.0 0.0 0.00 0.00 0.00 86
20220527144126 58 164 0.0 0.0 0.00 0.00 0.00 87
20220527143613 58 164 0.0 0.0 0.00 0.00 0.00 87
20220527143059 58 164 0.0 0.0 0.00 0.00 0.00 87
20220527142608 58 164 0.0 0.0 0.00 0.00 0.00 88
20220527142109 58 164 0.0 0.0 0.00 0.00 0.00 89
20220527141557 58 164 0.0 0.0 0.00 0.00 0.00 89
20220527141050 58 164 0.0 0.0 0.00 0.00 0.00 88
20220527140550 58 152 0.0 0.0 0.00 0.00 0.00 88
20220527140044 58 121 0.0 0.0 0.00 0.00 0.00 89
20220527135536 58 121 0.0 0.0 0.00 0.00 0.00 89
20220527135021 58 121 0.0 0.0 0.00 0.00 0.00 89
20220527134511 58 121 0.0 0.0 0.00 0.00 0.00 89
20220527133951 58 121 0.0 0.0 0.00 0.00 0.00 89
20220527133450 58 121 0.0 0.0 0.00 0.00 0.00 89
20220527132954 57 121 0.0 0.0 0.00 0.00 0.00 89
20220527132442 57 121 0.0 0.0 0.00 0.00 0.00 89
20220527131944 57 121 0.0 0.0 0.00 0.00 0.00 88
20220527131425 58 121 0.0 0.0 0.00 0.00 0.00 88
20220527130935 58 121 0.0 0.0 0.00 0.00 0.00 88
20220527130425 58 121 0.0 0.0 0.00 0.00 0.00 88
20220527125915 58 121 0.0 0.0 0.00 0.00 0.00 88
20220527125411 58 121 0.0 0.0 0.00 0.00 0.00 87
20220527124859 58 121 0.0 0.0 0.00 0.00 0.00 87
20220527124343 58 121 0.0 0.0 0.00 0.00 0.00 87
20220527123849 58 121 0.0 0.0 0.00 0.00 0.00 87
20220527123359 58 121 0.0 0.0 0.00 0.00 0.00 87
20220527122839 58 121 0.0 0.0 0.00 0.00 0.00 87
20220527122345 58 121 0.0 0.0 0.00 0.00 0.00 87
20220527121839 58 121 0.0 0.0 0.00 0.00 0.00 87
20220527121324 57 121 0.0 0.0 0.00 0.00 0.00 87
20220527120809 58 121 0.0 0.0 0.00 0.00 0.00 87
20220527120311 58 121 0.0 0.0 0.00 0.00 0.00 87
20220527115757 57 121 0.0 0.0 0.00 0.00 0.00 87
20220527115251 57 121 0.0 0.0 0.00 0.00 0.00 87
20220527114744 57 121 0.0 0.0 0.00 0.00 0.00 87
20220527114249 58 121 0.0 0.0 0.00 0.00 0.00 87
20220527113737 58 123 0.0 0.0 0.00 0.00 0.00 87
20220527113245 58 123 0.0 0.0 0.00 0.00 0.00 87
20220527112736 58 123 0.0 0.0 0.00 0.00 0.00 87
20220527112237 58 123 0.0 0.0 0.00 0.00 0.00 87
20220527111732 58 123 0.0 0.0 0.00 0.00 0.00 87
20220527111228 58 123 0.0 0.0 0.00 0.00 0.00 87
20220527110717 58 123 0.0 0.0 0.00 0.00 0.00 87
20220527110224 58 123 0.0 0.0 0.00 0.00 0.00 87
20220527105709 58 123 0.0 0.0 0.00 0.00 0.00 87
20220527105217 58 123 0.0 0.0 0.00 0.00 0.00 86
20220527104707 58 123 0.0 0.0 0.00 0.00 0.00 86
20220527104205 58 123 0.0 0.0 0.00 0.00 0.00 86
20220527103649 58 123 0.0 0.0 0.00 0.00 0.00 86
20220527103137 58 123 0.0 0.0 0.00 0.00 0.00 86
20220527102642 58 123 0.0 0.0 0.00 0.00 0.00 86
20220527102147 58 123 0.0 0.0 0.00 0.00 0.00 86
20220527101652 58 123 0.0 0.0 0.00 0.00 0.00 86
20220527101141 58 123 0.0 0.0 0.00 0.00 0.00 86
20220527100644 58 123 0.0 0.0 0.00 0.00 0.00 86
20220527100148 58 327 0.0 0.0 0.00 0.00 0.00 86
20220527095645 58 327 0.0 0.0 0.00 0.00 0.00 86
20220527095146 58 327 0.0 0.0 0.00 0.00 0.00 86
20220527094635 58 327 0.0 0.0 0.00 0.00 0.00 86
20220527094127 58 327 0.0 0.0 0.00 0.00 0.00 86
20220527093621 58 327 0.0 0.0 0.00 0.00 0.00 86
20220527093121 58 327 0.0 0.0 0.00 0.00 0.00 86
20220527092630 58 327 0.0 0.0 0.00 0.00 0.00 86
20220527092126 57 327 0.0 0.0 0.00 0.00 0.00 86
20220527091627 57 327 0.0 0.0 0.00 0.00 0.00 86
20220527091109 57 327 0.0 0.0 0.00 0.00 0.00 86
20220527090616 57 327 0.0 0.0 0.00 0.00 0.00 86
20220527090109 57 327 0.0 0.0 0.00 0.00 0.00 86
20220527085559 57 327 0.0 0.0 0.00 0.00 0.00 86
20220527085106 57 327 0.0 0.0 0.00 0.00 0.00 86
20220527084602 57 327 0.0 0.0 0.00 0.00 0.00 86
20220527084049 57 327 0.0 0.0 0.00 0.00 0.00 87
20220527083541 57 327 0.0 0.0 0.00 0.00 0.00 87
20220527083048 57 327 0.0 0.0 0.00 0.00 0.00 87
20220527082529 57 327 0.0 0.0 0.00 0.00 0.00 87
20220527082020 57 327 0.0 0.0 0.00 0.00 0.00 87
20220527081529 57 327 0.0 0.0 0.00 0.00 0.00 87
20220527081036 57 327 0.0 0.0 0.00 0.00 0.00 87
20220527080543 57 327 0.0 0.0 0.00 0.00 0.00 87
20220527080036 57 327 0.0 0.0 0.00 0.00 0.00 87
20220527075545 57 327 0.0 0.0 0.00 0.00 0.00 87
20220527075039 57 327 0.0 0.0 0.00 0.00 0.00 88
20220527074530 57 327 0.0 0.0 0.00 0.00 0.00 88
20220527074023 57 327 0.0 0.0 0.00 0.00 0.00 88
20220527073517 57 327 0.0 0.0 0.00 0.00 0.00 88
20220527072958 56 327 0.0 0.0 0.00 0.00 0.00 88
20220527072441 56 327 0.0 0.0 0.00 0.00 0.00 88
20220527071949 56 327 0.0 0.0 0.00 0.00 0.00 88
20220527071452 56 327 0.0 0.0 0.00 0.00 0.00 89
20220527070939 56 327 0.0 0.0 0.00 0.00 0.00 89
20220527070428 56 327 0.0 0.0 0.00 0.00 0.00 89
20220527065926 56 327 0.0 0.0 0.00 0.00 0.00 89
20220527065411 56 327 0.0 0.0 0.00 0.00 0.00 90
20220527064902 56 327 0.0 0.0 0.00 0.00 0.00 90
20220527064410 56 327 0.0 0.0 0.00 0.00 0.00 90
20220527063902 55 327 0.0 0.0 0.00 0.00 0.00 90
20220527063400 55 327 0.0 0.0 0.00 0.00 0.00 90
20220527062854 55 327 0.0 0.0 0.00 0.00 0.00 90
20220527062352 55 327 0.0 0.0 0.00 0.00 0.00 90
20220527061853 55 327 0.0 0.0 0.00 0.00 0.00 90
20220527061402 55 327 0.0 0.0 0.00 0.00 0.00 89
20220527060846 55 327 0.0 0.0 0.00 0.00 0.00 89
20220527060354 55 327 0.0 0.0 0.00 0.00 0.00 89
20220527055857 54 327 0.0 0.0 0.00 0.00 0.00 88
20220527055344 54 327 0.0 0.0 0.00 0.00 0.00 88
20220527054853 54 327 0.0 0.0 0.00 0.00 0.00 88
20220527054337 54 327 0.0 0.0 0.00 0.00 0.00 88
20220527053824 54 327 0.0 0.0 0.00 0.00 0.00 87
20220527053306 54 327 0.0 0.0 0.00 0.00 0.00 87
20220527052748 54 327 0.0 0.0 0.00 0.00 0.00 86
20220527052231 55 327 0.0 0.0 0.00 0.00 0.00 86
20220527051729 55 327 0.0 0.0 0.00 0.00 0.00 86
20220527051214 55 327 0.0 0.0 0.00 0.00 0.00 85
20220527050703 55 327 0.0 0.0 0.00 0.00 0.00 85
20220527050211 55 327 0.0 0.0 0.00 0.00 0.00 85
20220527045703 55 327 0.0 0.0 0.00 0.00 0.00 85
20220527045209 55 327 0.0 0.0 0.00 0.00 0.00 85
20220527044652 56 327 0.0 0.0 0.00 0.00 0.00 84
20220527044133 56 327 0.0 0.0 0.00 0.00 0.00 84
20220527043616 56 327 0.0 0.0 0.00 0.00 0.00 84
20220527043118 56 327 0.0 0.0 0.00 0.00 0.00 84
20220527042619 57 327 0.0 0.0 0.00 0.00 0.00 83
20220527042113 57 327 0.0 0.0 0.00 0.00 0.00 83
20220527041605 57 327 0.0 0.0 0.00 0.00 0.00 83
20220527041047 57 327 0.0 0.0 0.00 0.00 0.00 83
20220527040529 58 327 0.0 0.0 0.00 0.00 0.00 82
20220527040016 58 327 0.0 0.0 0.00 0.00 0.00 82
20220527035523 58 327 0.0 0.0 0.00 0.00 0.00 83
20220527035026 58 327 0.0 0.0 0.00 0.00 0.00 83
20220527034525 58 327 0.0 0.0 0.00 0.00 0.00 82
20220527034020 58 327 0.0 0.0 0.00 0.00 0.00 82
20220527033520 59 327 0.0 0.0 0.00 0.00 0.00 82
20220527033022 59 327 0.0 0.0 0.00 0.00 0.00 82
20220527032513 59 327 0.0 0.0 0.00 0.00 0.00 81
20220527032005 59 327 0.0 0.0 0.00 0.00 0.00 81
20220527031448 59 327 0.0 0.0 0.00 0.00 0.00 81
20220527030955 59 327 0.0 0.0 0.00 0.00 0.00 81
20220527030443 59 327 0.0 2.0 0.00 0.00 0.00 81
20220527025952 59 327 0.0 0.0 0.00 0.00 0.00 80
20220527025435 59 327 0.0 0.0 0.00 0.00 0.00 80
20220527024920 60 327 0.0 5.0 0.00 0.00 0.00 80
20220527024414 60 308 0.0 5.0 0.00 0.00 0.00 79
20220527023914 60 309 1.0 5.0 0.00 0.00 0.00 79
20220527023410 60 297 1.0 5.0 0.00 0.00 0.00 79
20220527022909 61 24 1.0 5.0 0.00 0.00 0.00 78
20220527022414 61 300 1.0 5.0 0.00 0.00 0.00 77
20220527021909 61 257 1.0 5.0 0.00 0.00 0.00 76
20220527021401 62 271 1.0 5.0 0.00 0.00 0.00 75
20220527020848 62 312 0.0 6.0 0.00 0.00 0.00 74
20220527020338 63 308 1.0 6.0 0.00 0.00 0.00 73
20220527015837 63 316 1.0 7.0 0.00 0.00 0.00 72
20220527015330 64 297 1.0 7.0 0.00 0.00 0.00 71
20220527014831 65 237 0.0 7.0 0.00 0.00 0.00 70
20220527014332 65 23 1.0 7.0 0.00 0.00 0.00 69
20220527013816 66 247 1.0 6.0 0.00 0.00 0.00 68
20220527013306 66 327 1.0 6.0 0.00 0.00 0.00 68
20220527012757 67 342 0.0 4.0 0.00 0.00 0.00 67
20220527012244 67 111 1.0 6.0 0.00 0.00 0.00 67
20220527011747 67 86 1.0 6.0 0.00 0.00 0.00 66
20220527011249 67 13 2.0 8.0 0.00 0.00 0.00 66
20220527010731 68 279 3.0 8.0 0.00 0.00 0.00 65
20220527010239 69 283 4.0 8.0 0.00 0.00 0.00 65
20220527005720 69 289 3.0 8.0 0.00 0.00 0.00 63
20220527005229 70 292 3.0 7.0 0.00 0.00 0.00 62